This is the latest recevied weather packets stored in our database for station/object N8ESC. If no packets are shown the sender has not sent any weather packets the latest 10 day(s).
| Time | Temp. | Humidity | Pressure | Rain* | Wind** | Luminosity | Snow |
|---|---|---|---|---|---|---|---|
| 1777323718 | 15° C | 57% | 1002.6 hPa | 0 mm | - | 47 W/m² | - |
| 1777323414 | 15° C | 57% | 1002.7 hPa | 0 mm | - | 52 W/m² | - |
| 1777323112 | 15.56° C | 55% | 1002.6 hPa | 0 mm | - | 56 W/m² | - |
| 1777322810 | 15.56° C | 54% | 1002.6 hPa | 0 mm | - | 110 W/m² | - |
| 1777322508 | 15.56° C | 54% | 1002.5 hPa | 0 mm | - | 83 W/m² | - |
| 1777322204 | 16.11° C | 54% | 1002.5 hPa | 0 mm | - | 139 W/m² | - |
| 1777321901 | 16.11° C | 54% | 1002.7 hPa | 0 mm | - | 165 W/m² | - |
| 1777321598 | 16.11° C | 54% | 1002.9 hPa | 0 mm | - | 191 W/m² | - |
| 1777321295 | 16.11° C | 55% | 1003.1 hPa | 0 mm | - | 259 W/m² | - |
| 1777320992 | 16.11° C | 54% | 1003.4 hPa | 0 mm | - | 277 W/m² | - |
| 1777320690 | 16.11° C | 55% | 1003.6 hPa | 0 mm | - | 251 W/m² | - |
| 1777320387 | 16.11° C | 56% | 1003.8 hPa | 0 mm | - | 219 W/m² | - |
| 1777320083 | 15.56° C | 57% | 1004.2 hPa | 0 mm | - | 228 W/m² | - |
| 1777319780 | 15.56° C | 58% | 1004.3 hPa | 0 mm | - | 278 W/m² | - |
| 1777319477 | 15° C | 58% | 1004.7 hPa | 0 mm | - | 277 W/m² | - |
| 1777319175 | 15.56° C | 59% | 1005 hPa | 0 mm | - | 250 W/m² | - |
| 1777318871 | 15.56° C | 59% | 1005.1 hPa | 0 mm | - | 319 W/m² | - |
| 1777318569 | 15.56° C | 59% | 1005.5 hPa | 0 mm | - | 325 W/m² | - |
| 1777318265 | 15.56° C | 59% | 1005.8 hPa | 0 mm | - | 221 W/m² | - |
| 1777317961 | 15.56° C | 59% | 1006 hPa | 0 mm | - | 223 W/m² | - |
| 1777317658 | 16.11° C | 58% | 1006.1 hPa | 0 mm | - | 241 W/m² | - |
| 1777317356 | 16.67° C | 57% | 1006.4 hPa | 0 mm | - | 310 W/m² | - |
| 1777317050 | 16.67° C | 57% | 1006.6 hPa | 0 mm | - | 359 W/m² | - |
| 1777316749 | 16.11° C | 57% | 1006.4 hPa | 0 mm | - | 414 W/m² | - |
| 1777316444 | 16.67° C | 57% | 1006.4 hPa | 0 mm | - | 315 W/m² | - |
* Rain latest hour (hover to see other rain measurements)
** Current wind speed in m/s (hover to see current wind gust speed)